sat.trackr.live / text

‹ back to catalog

STARLINK-35329

NORAD 65908 · 2025-224AC

PAYLOAD ACTIVE UNKNOWN

§ Identity

Operator
Country
US
Launch date
2025-10-07
Launch site
AFETR
Launch vehicle
Mass (kg)
RCS (m²)

Purposes: comms

External: N2YO · Heavens-Above · Gunter

§ Orbital elements

Epoch: 2026-05-25T00:27:03.463776Z

Period
93.85 min
Inclination
53.1596°
Eccentricity
0.0000917
Mean motion
15.34400822 rev/d
Perigee alt
462.1 km
Apogee alt
463.3 km
Semi-major
6,840.8 km
B*
4.1345e-4
RAAN
15.8775°
Arg perigee
99.2098°
Mean anomaly
260.9008°
Rev number
3,656

§ Raw data

STARLINK-353291 65908U 25224AC  26145.01879009  .00013619  00000+0  41345-3 0  99942 65908  53.1596  15.8775 0000917  99.2098 260.9008 15.34400822 36560

JSON: /api/v1/satellites/65908 · /tle

For live sub-satellite position, see the globe view (requires WebGL).

§ Visibility from observer

Set your observer location to see the next 7 days of passes ≥ 10°. The values pass through the URL so the page stays shareable.

No JS? Fill the form by hand. The geolocation button needs JavaScript.